Location: Leipzig
(51.3392°N, 12.3528°E)
Time: 01:06:11
(UTC+01:00)

Envisat - Visible Passes

Search period start: 23 January 2018 00:00
Search period end: 02 February 2018 00:00
Orbit: 764 x 766 km, 98.2° (Epoch: 22 January)

Date Brightness Start Highest point End Pass type
(mag) Time Alt. Az. Time Alt. Az. Time Alt. Az.
23 Jan 4.4 17:55:47 14° E 17:58:04 18° NE 18:01:27 10° NNE visible
23 Jan 2.9 19:35:58 74° S 19:36:27 88° WSW 19:41:35 10° NNW visible
23 Jan 5.7 21:16:08 15° W 21:16:15 15° W 21:19:02 10° NW visible
24 Jan 4.8 17:21:16 10° NE 17:21:56 10° NE 17:22:36 10° NE visible
24 Jan 3.1 18:58:32 39° ESE 18:59:49 49° ENE 19:04:43 10° N visible
24 Jan 4.7 20:38:44 28° W 20:39:05 28° W 20:43:27 10° NW visible
25 Jan 6.2 07:00:53 10° ENE 07:02:16 11° E 07:03:39 10° E visible
25 Jan 3.9 18:21:06 19° E 18:23:22 27° ENE 18:27:35 10° N visible
25 Jan 3.6 20:01:17 49° SW 20:02:06 55° W 20:07:07 10° NNW visible
26 Jan 4.5 17:44:12 10° E 17:47:06 15° NE 17:50:00 10° NNE visible
26 Jan 2.8 19:23:50 47° SSE 19:25:20 77° ENE 19:30:26 10° NNW visible
26 Jan 5.4 21:04:02 17° WSW 21:04:58 18° W 21:08:23 10° NW visible
27 Jan 3.4 18:46:24 25° ESE 18:48:45 40° ENE 18:53:29 10° N visible
27 Jan 4.4 20:26:34 30° SW 20:27:50 34° W 20:32:30 10° NNW visible
28 Jan 4.1 18:08:56 12° ESE 18:12:21 23° ENE 18:16:15 10° N visible
28 Jan 3.2 19:49:07 39° S 19:50:56 68° WSW 19:56:02 10° NNW visible
28 Jan 5.9 21:29:48 10° W 21:30:57 11° W 21:32:06 10° WNW visible
29 Jan 4.7 17:33:52 10° ENE 17:36:08 13° NE 17:38:25 10° NNE visible
29 Jan 2.9 19:11:39 29° SE 19:14:13 64° ENE 19:19:16 10° N visible
29 Jan 5.2 20:51:49 18° WSW 20:53:41 22° W 20:57:35 10° NW visible
30 Jan 5.9 07:14:06 10° NE 07:16:59 15° E 07:19:50 10° ESE visible
30 Jan 3.6 18:34:10 15° ESE 18:37:41 34° ENE 18:42:15 10° N visible
30 Jan 4.1 20:14:21 27° SSW 20:16:38 42° W 20:21:28 10° NNW visible
31 Jan 4.3 17:57:49 10° E 18:01:21 19° NE 18:04:53 10° NNE visible
31 Jan 3.0 19:36:52 26° S 19:39:47 82° WSW 19:44:55 10° NNW visible
31 Jan 5.8 21:17:12 10° WSW 21:19:38 13° W 21:22:05 10° NW visible
01 Feb 3.1 18:59:23 17° SE 19:03:07 52° ENE 19:08:04 10° N visible
01 Feb 4.9 20:39:33 16° SW 20:42:26 26° W 20:46:42 10° NW visible
